P 76-5

Satellite information

Favourite Embed

Satellite Type and Status

PAYLOADIN ORBIT

Key statistics

Satellite P 76-5 at a glance.

Uptime

17884

Days in orbit

Revolutions

≈ 13.7

Per day

Orbit

SSO

Sun Synchronous Orbit

Inclination

99.9

Latest

Satellite identification and parameters

Extended collection of information and parameters for P 76-5.

Object identification

Identified? True

Debris? False

Object name: P 76-5

International designator: 1976-047A

Object number (NORAD): 8860

Object ID (CCSDS): 8860

Country: UNITED STATES OF AMERICA (US)

Current information (Y/N): Y

RCS size: LARGE

Orbital parameters

Period: 105.249 minutes

Inclination: 99.9393 deg

SMA: 7384.231 km

Apoapsis: 1036.492 km

Periapsis: 975.699 km

RAAN: 325.7468 deg

Eccentricy: 0.0041164

Argument of periapsis: 307.0595 deg

Mean anomaly: 107.9754 deg

Mean motion: 13.68185203 rev/day

Mean motion (dot): 0.00000132 rev/day2

B* drag term: 0.00020917 1/REarth

Two-line elements (TLE)

Creation date: May 9, 2025, 2:46 a.m.

Reference frame: TEME

Reference center: EARTH

Epoch: May 8, 2025, 12:39 p.m. UTC

TLE line 0: 0 P 76-5

TLE line 1: 1 08860U 76047A 25128.52745194 .00000132 00000-0 20917-3 0 9999

TLE line 2: 2 08860 99.9393 325.7468 0041164 307.0595 107.9754 13.68185203441050

Live tracking on map

Real-time ground track for satellite P 76-5.

In-orbit conjunctions

A list of the most updated potential collisions computed for object P 76-5.

Target Orbit TCA Probability of collision Miss distance Type
COSMOS 2251 DEB LEO 2024-09-25 07:58:18 0.0002056211 933.0 (m) DEBRIS

Associated space launch

Experimental military satellite

P 76-5 was lifted into orbit during the mission ‘Scout B-1 | Wideband’, on board a Scout B-1 space rocket.

The launch took place on May 22, 1976, 7:42 a.m. from Space Launch Complex 5.

For more information about the launch, click the button.

Launch to space Scout B-1 | Wideband
Scout B-1 | Wideband

Agency: N/A

Status: Launch Successful

Launch date: May 22, 1976, 7:42 a.m. UTC

Rocket: Scout B-1

Launch pad: Space Launch Complex 5

Location: Vandenberg SFB, CA, USA

...

Latest news about this satellite

There are no fresh news available about this satellite. Check back as we update our databases every day.


Newsletter sign-up

Weekly statistics, charts and insights to help you stay on top of the space industry.